Weather History for KRIV - October, 2013

Change the Weather History Date:

Wednesday, October 2, 2013

  Actual Average (KRAL) Record (KRAL)
Temperature  
Mean Temperature 66 °F 72 °F  
Max Temperature 77 °F 86 °F 108 °F (1980)
Min Temperature 55 °F 59 °F 39 °F (1950)
Degree Days  
Heating Degree Days 0 0  
Month to date heating degree days 0  
Since 1 July heating degree days 2  
Cooling Degree Days 1 7  
Month to date cooling degree days 15  
Year to date cooling degree days 1607  
Growing Degree Days 16 (Base 50)    
Moisture  
Dew Point 57 °F    
Average Humidity 90    
Maximum Humidity 100    
Minimum Humidity 45    
Precipitation  
Precipitation 0.00 in 0.00 in 0.32 in (1916)
Month to date precipitation 0.00  
Year to date precipitation 9.59  
Since 1 July precipitation 0.40  
Snow  
Snow 0.00 in - - ()
Month to date snowfall  
Year to date snowfall  
Since 1 July snowfall  
Snow Depth -    
Sea Level Pressure  
Sea Level Pressure 29.93 in    
Wind  
Wind Speed 2 mph (WSW)    
Max Wind Speed 12 mph    
Max Gust Speed -    
Visibility 6 miles    
Events Fog    
T = Trace of Precipitation, MM = Missing Value Source: NWS Daily Summary

Daily Weather History Graph

Daily Weather History Graph

Search for Another Location

Airport or City:

Trip Planner

Search our weather history database for the weather conditions in past years. The results will help you decide how hot, cold, wet, or windy it might be!

Date:

Astronomy

Oct. 02, 2013 Rise Set
Actual Time 6:44 AM PDT 6:31 PM PDT
Civil Twilight 6:19 AM PDT 6:56 PM PDT
Nautical Twilight 5:50 AM PDT 7:25 PM PDT
Astronomical Twilight 5:21 AM PDT 7:54 PM PDT
Moon 4:27 AM PDT (10/2) 5:06 PM PDT (10/2)
Length of Visible Light 12h 36m
Length of Day
11h 47m
Waning Crescent, 6% of the Moon is Illuminated
Oct 2
Waning Crescent
Oct 4
New
Oct 11
First Quarter
Oct 18
Full
Oct 26
Last Quarter

Hourly Weather History & Observations

Time (PDT) Temp. Dew Point Humidity Pressure Visibility Wind Dir Wind Speed Gust Speed Precip Events Conditions
12:55 AM 58.5 °F 54.3 °F 86% 29.94 in 10.0 mi Calm Calm - N/A   Clear
1:58 AM 57.7 °F 56.3 °F 95% 29.92 in 10.0 mi Calm Calm - N/A   Clear
2:07 AM 57.2 °F 55.4 °F 94% 29.95 in 10.0 mi Calm Calm - N/A   Scattered Clouds
2:48 AM 55.4 °F 51.8 °F 88% 29.95 in 7.0 mi Calm Calm - N/A   Mostly Cloudy
2:58 AM 55.9 °F 52.3 °F 88% 29.91 in 7.0 mi Calm Calm - N/A   Mostly Cloudy
3:09 AM 57.2 °F 57.2 °F 100% 29.94 in 2.0 mi Calm Calm - N/A   Overcast
3:23 AM 55.4 °F 55.4 °F 100% 29.94 in 1.5 mi SSE 3.5 mph - N/A   Overcast
3:58 AM 55.9 °F 55.9 °F 100% 29.91 in 1.5 mi SE 2.3 mph - N/A   Overcast
4:25 AM 55.4 °F 55.4 °F 100% 29.94 in 3.0 mi ESE 4.6 mph - N/A   Overcast
4:38 AM 57.2 °F 57.2 °F 100% 29.93 in 2.0 mi SE 4.6 mph - N/A   Overcast
4:52 AM 55.4 °F 55.4 °F 100% 29.93 in 0.5 mi SE 3.5 mph - N/A Fog Fog
4:58 AM 55.9 °F 55.9 °F 100% 29.91 in 0.5 mi SSE 3.5 mph - N/A Fog Fog
5:55 AM 55.4 °F 55.4 °F 100% 29.95 in 0.5 mi South 2.3 mph - N/A Fog Fog
5:58 AM 55.9 °F 55.9 °F 100% 29.92 in 0.5 mi NNW 1.2 mph - N/A Fog Fog
6:31 AM 55.4 °F 55.4 °F 100% 29.96 in 0.2 mi NNE 1.2 mph - N/A Fog Fog
6:58 AM 55.8 °F 55.8 °F 100% 29.94 in 0.5 mi WNW 2.3 mph - N/A Fog Fog
7:58 AM 55.6 °F 55.6 °F 100% 29.95 in 0.5 mi Calm Calm - N/A Fog Fog
8:19 AM 55.4 °F 55.4 °F 100% 29.97 in 0.8 mi ENE 1.2 mph - N/A   Mist
8:29 AM 55.4 °F 55.4 °F 100% 29.98 in 1.0 mi Calm Calm - N/A   Mist
8:47 AM 57.2 °F 57.2 °F 100% 29.98 in 1.5 mi SW 2.3 mph - N/A   Overcast
8:58 AM 56.7 °F 56.7 °F 100% 29.96 in 1.5 mi Calm Calm - N/A   Overcast
9:10 AM 57.2 °F 57.2 °F 100% 29.99 in 2.0 mi Calm Calm - N/A   Overcast
9:23 AM 57.2 °F 57.2 °F 100% 29.99 in 2.5 mi NNW 2.3 mph - N/A   Overcast
9:34 AM 57.2 °F 57.2 °F 100% 29.99 in 3.0 mi Variable 1.2 mph - N/A   Overcast
9:58 AM 58.1 °F 58.1 °F 100% 29.97 in 4.0 mi Variable 2.3 mph - N/A   Mostly Cloudy
10:11 AM 60.8 °F 60.8 °F 100% 29.98 in 5.0 mi NE 3.5 mph - N/A   Scattered Clouds
10:58 AM 65.5 °F 65.5 °F 100% 29.96 in 10.0 mi Variable 2.3 mph - N/A   Clear
11:58 AM 71.2 °F 60.4 °F 69% 29.95 in 10.0 mi Calm Calm - N/A   Clear
12:58 PM 74.7 °F 59.2 °F 58% 29.92 in 10.0 mi Variable 5.8 mph - N/A   Clear
1:58 PM 76.1 °F 58.5 °F 54% 29.89 in 10.0 mi WNW 9.2 mph - N/A   Clear
2:58 PM 76.6 °F 56.7 °F 50% 29.86 in 10.0 mi West 5.8 mph - N/A   Clear
3:58 PM 77.5 °F 54.9 °F 45% 29.86 in 10.0 mi WNW 11.5 mph - N/A   Clear
4:58 PM 77.0 °F 55.2 °F 47% 29.86 in 10.0 mi NW 10.4 mph - N/A   Clear
5:58 PM 73.2 °F 55.9 °F 55% 29.87 in 10.0 mi WNW 10.4 mph - N/A   Clear
6:58 PM 68.4 °F 56.8 °F 67% 29.88 in 10.0 mi WNW 9.2 mph - N/A   Clear
7:58 PM 64.8 °F 57.7 °F 78% 29.89 in 10.0 mi West 3.5 mph - N/A   Clear
8:58 PM 62.8 °F 59.0 °F 87% 29.91 in 10.0 mi WNW 6.9 mph - N/A   Clear
9:58 PM 61.2 °F 59.7 °F 95% 29.92 in 10.0 mi Variable 3.5 mph - N/A   Clear
10:38 PM 59.0 °F 59.0 °F 100% 29.95 in 10.0 mi Calm Calm - N/A   Mostly Cloudy
10:58 PM 60.6 °F 59.5 °F 96% 29.93 in 10.0 mi Calm Calm - N/A   Overcast
11:13 PM 60.8 °F 60.8 °F 100% 29.95 in 10.0 mi South 3.5 mph - N/A   Overcast
11:28 PM 60.8 °F 60.8 °F 100% 29.95 in 10.0 mi Calm Calm - N/A   Overcast
11:58 PM 59.9 °F 59.9 °F 100% 29.93 in 10.0 mi South 5.8 mph - N/A   Overcast